Location: ???????
(38.3360°N, 23.6977°E)
Time: 14:17:04
(UTC+00:00)

Cosmos 1782 Rocket - Visible Passes

Search period start: 14 February 2026 00:00
Search period end: 24 February 2026 00:00
Orbit: 601 x 624 km, 82.5° (Epoch: 13 February)

Date Brightness Start Highest point End Pass type
(mag) Time Alt. Az. Time Alt. Az. Time Alt. Az.
14 Feb 3.6 04:03:34 10° S 04:07:58 85° E 04:12:24 10° N visible
15 Feb 6.9 02:44:25 10° ESE 02:46:04 12° E 02:47:44 10° ENE visible
15 Feb 3.7 04:18:58 10° SSW 04:23:15 51° W 04:27:34 10° N visible
16 Feb 6.1 02:57:46 10° SE 03:01:06 22° E 03:04:27 10° NE visible
16 Feb 4.4 04:34:49 10° SW 04:38:37 28° WNW 04:42:28 10° NNW visible
17 Feb 5.0 03:12:07 10° SSE 03:16:12 38° E 03:20:19 10° NNE visible
18 Feb 3.7 03:27:01 10° S 03:31:23 73° E 03:35:48 10° NNE visible
19 Feb 6.9 02:09:10 10° E 02:09:33 10° E 02:09:55 10° ENE visible
19 Feb 3.5 03:42:18 10° SSW 03:46:38 61° W 03:51:03 10° N visible
20 Feb 6.2 02:21:30 10° SE 02:24:33 19° E 02:27:37 10° NE visible
20 Feb 4.2 03:58:00 10° SW 04:01:59 33° WNW 04:06:01 10° NNW visible
21 Feb 5.2 02:37:34 22° SE 02:39:38 33° E 02:43:37 10° NNE visible
21 Feb 4.9 04:14:44 12° WSW 04:17:25 19° WNW 04:20:36 10° NNW visible
22 Feb 4.0 02:54:25 59° ESE 02:54:48 61° E 02:59:11 10° NNE visible
22 Feb 5.5 04:31:55 10° W 04:32:57 11° WNW 04:33:59 10° NW visible
23 Feb 3.7 03:10:44 59° NNW 03:10:44 59° NNW 03:14:28 10° N visible
